Sagehen Creek Weather observations

Data are for observation ending at time listed.
 Day   Time    Ave.   Ave.  Ave.  Vector   Max.   Stn.    Total    Solar   Ave.  
  of    of     Air    Rel.  Wind   Wind    Wind   Baro.  Precip.   Rad.    Soil  
Year   Day     Temp.  Hum.  Speed  Dir.    Gust   Pres.                    Temp. 
2014   (PST)    F      %     mph   deg.    mph     mb.     in.     W/m2     F   
------------------------------------------------------------------------------
 303   12:00   55.9    45    4.4    80      8.2   836.5   14.05     533    999.0
 303   12:10   58.2    40    3.0    96      5.8   836.3   14.05     410    999.0
 303   12:20   58.2    40    2.7    89      5.6   836.3   14.05     306    999.0
 303   12:30   57.9    40    3.1    92      5.3   836.2   14.05     334    999.0
 303   12:40   58.8    34    3.7    91      6.4   835.7   14.05     396    999.0
 303   12:50   59.3    34    2.0    84      4.6   835.7   14.05     310    999.0
 303   13:00   59.5    34    2.5    90      5.1   835.8   14.05     239    999.0
 303   13:10   59.1    34    2.3    75      6.7   835.6   14.05     257    999.0
 303   13:20   59.3    34    2.6    82      5.4   835.5   14.05     260    999.0
 303   13:30   59.7    35    1.7    79      4.0   835.4   14.05     241    999.0
 303   13:40   60.2    31    2.0   178      5.2   835.3   14.05     208    999.0
 303   13:50   61.1    28    1.9     8      5.7   835.1   14.05     199    999.0
 303   14:00   61.3    26    1.7   173      9.2   834.9   14.05     186    999.0
 303   14:10   60.4    26    1.3   236      3.0     0.0   14.05     324    999.0
 303   14:20   62.4    26    1.8   174      5.0   431.5   14.05     346    999.0
 303   14:30   63.1    23    1.7   156      4.6   835.2   14.05     445    999.0
 303   14:40   63.6    24    2.2   280      6.2   835.0   14.05     298    999.0
 303   14:50   61.9    25    1.6   348      4.8   835.1   14.05     248    999.0
 303   15:00   61.4    25    2.1   117      4.9   835.2   14.05     181    999.0
 303   15:10   60.6    25    2.9   119      8.1   834.7   14.05      83    999.0
 303   15:20   59.4    26    2.2   127      5.3   834.7   14.05      53    999.0
 303   15:30   59.1    26    2.8   103      5.9   834.6   14.05      81    999.0
 303   15:40   59.8    25    1.2   146      3.8   834.7   14.05      82    999.0
 303   15:50   59.8    25    1.9   207      5.8   834.9   14.05      83    999.0
 303   16:00   59.5    27    1.9   264      6.7   835.0   14.05      66    999.0
 303   16:10   58.1    30    1.7   262      5.3   834.6   14.05      43    999.0
 303   16:20   57.1    29    2.7   271      5.4   834.8   14.05      38    999.0
 303   16:30   56.7    30    2.2   268      4.4   835.0   14.05      30    999.0
 303   16:40   55.9    31    1.8   269      6.3   834.8   14.05      13    999.0
 303   16:50   55.0    33    1.7   201      4.7   834.7   14.06       8    999.0
 303   17:00   54.1    34    1.7   266      4.2   834.6   14.05       5    999.0
 303   17:10   53.5    37    1.4   265      3.0   834.6   14.06       1    999.0
 303   17:20   52.8    37    1.3   257      3.4   834.7   14.06       0    999.0
 303   17:30   52.0    41    2.0   263      4.0   834.7   14.06       0    999.0
 303   17:40   50.1    46    1.4   267      3.4   834.5   14.06       0    999.0
 303   17:50   49.3    48    1.4   269      2.6   834.6   14.06       0    999.0
 303   18:00   48.8    49    1.5   249      2.8   834.7   14.06       0    999.0
 303   18:10   44.9    43    1.3   247      2.8     0.0   14.06       0    999.0
 303   18:20   48.3    50    2.3   264      5.2   431.3   14.06       0    999.0
 303   18:30   48.3    50    1.7   251      2.9   834.7   14.06       0    999.0
 303   18:40   49.4    45    1.3   267      3.3   834.9   14.06       0    999.0
 303   18:50   50.3    42    2.5   291      5.2   834.7   14.06       0    999.0
 303   19:00   52.0    38    2.6   289      7.7   834.4   14.06       0    999.0
 303   19:10   52.0    37    1.6   203      4.7   834.8   14.06       0    999.0
 303   19:20   51.9    37    1.7   146      4.9   834.8   14.06       0    999.0
 303   19:30   51.3    38    1.6   250      3.5   834.7   14.06       0    999.0
 303   19:40   49.6    45    1.3   248      5.1   834.7   14.06       0    999.0
 303   19:50   47.6    51    1.4   259      2.5   834.6   14.06       0    999.0
 303   20:00   45.9    53    1.5   287      2.7   834.5   14.06       0    999.0
 303   20:10   45.9    52    1.7   282      5.3   834.4   14.06       0    999.0
 303   20:20   45.0    55    1.8   281      3.7   834.3   14.06       0    999.0
 303   20:30   44.5    57    1.6   274      4.6   834.2   14.06       0    999.0
 303   20:40   46.1    50    3.0   284      5.9   834.2   14.06       0    999.0
 303   20:50   48.6    43    1.5   246      3.0   834.4   14.05       0    999.0
 303   21:00   49.0    42    2.2   282      4.6   834.6   14.06       0    999.0
 303   21:10   50.8    37    2.4   292      7.9   834.0   14.06       0    999.0
 303   21:20   51.1    36    2.9   302      8.4   834.3   14.05       0    999.0
 303   21:30   51.0    36    2.7   292      6.1   834.5   14.05       0    999.0
 303   21:40   50.6    37    1.9   266      5.3   834.2   14.05       0    999.0
 303   21:50   50.3    38    2.3   275      5.3   834.2   14.05       0    999.0
 303   22:00   50.2    38    1.9   264      6.0   834.2   14.05       0    999.0
 303   22:10   50.1    37    2.7   286      5.7   834.2   14.05       0    999.0
 303   22:20   50.4    35    1.7   315      4.5   834.0   14.05       0    999.0
 303   22:30   50.1    36    2.2   283      8.2   833.9   14.05       0    999.0
 303   22:40   50.0    36    1.5    99      5.3   833.7   14.05       0    999.0
 303   22:50   49.8    36    2.3   104      6.1   833.6   14.05       0    999.0
 303   23:00   49.6    37    1.5    89      4.1   833.5   14.05       0    999.0
 303   23:10   48.3    41    1.2   303      4.3   833.9   14.05       0    999.0
 303   23:20   47.7    41    2.3   300      9.4   833.8   14.05       0    999.0
 303   23:30   49.0    37    2.4   213     12.4   833.6   14.05       0    999.0
 303   23:40   48.9    37    2.4   181      7.8   833.6   14.05       0    999.0
 303   23:50   49.0    37    1.8    37      9.6   833.5   14.06       0    999.0
 304    0:00   48.7    38    2.1   248      5.4   833.4   14.06       0    999.0
 304    0:10   48.5    38    1.8   277      4.4   833.3   14.05       0    999.0
 304    0:20   47.5    41    1.7   212     10.3   833.3   14.06       0    999.0
 304    0:30   47.1    41    2.0   272      7.7   833.4   14.06       0    999.0
 304    0:40   47.6    40    2.1   226      6.1   833.0   14.05       0    999.0
 304    0:50   48.1    39    2.7   262      7.9   833.1   14.05       0    999.0
 304    1:00   48.0    40    2.2   227      4.7   833.2   14.06       0    999.0
 304    1:10   48.0    41    2.3   177     11.0   832.9   14.06       0    999.0
 304    1:20   48.0    42    2.5   222      5.4   833.0   14.06       0    999.0
 304    1:30   47.5    44    2.2   221      6.5   833.1   14.05       0    999.0
 304    1:40   46.9    47    2.3   212      8.5   833.0   14.05       0    999.0
 304    1:50   46.9    47    3.3   220      8.0   832.8   14.05       0    999.0
 304    2:00   46.9    48    3.4   212      9.9   832.6   14.05       0    999.0
 304    2:10   46.6    50    3.6   204      8.1   832.5   14.05       0    999.0
 304    2:20   46.5    50    2.6   227      6.5   832.7   14.05       0    999.0
 304    2:30   45.7    52    2.2   211      7.1   832.8   14.05       0    999.0
 304    2:40   45.7    53    2.9   218      7.2   832.3   14.05       0    999.0
 304    2:50   45.3    54    2.4   199      6.3   832.3   14.05       0    999.0
 304    3:00   45.0    55    2.3   245      5.2   832.2   14.05       0    999.0
 304    3:10   44.7    56    2.1   246      5.5   832.2   14.05       0    999.0
 304    3:20   44.4    57    2.9   276      7.9   832.4   14.05       0    999.0
 304    3:30   44.8    57    2.7   275     10.3   832.6   14.05       0    999.0
 304    3:40   44.6    58    3.3   195     12.6   832.6   14.05       0    999.0
 304    3:50   44.3    59    2.7   263      7.3   832.4   14.05       0    999.0
 304    4:00   43.8    60    2.5   229      6.3   832.1   14.05       0    999.0
 304    4:10   43.4    62    2.5   267      4.6   832.1   14.05       0    999.0
 304    4:20   43.5    64    3.7   257      8.9   832.3   14.05       0    999.0
 304    4:30   43.4    65    3.3   270      7.6   832.5   14.05       0    999.0
 304    4:40   43.4    67    3.3   230      9.9   832.3   14.05       0    999.0
 304    4:50   43.1    68    2.6   279      8.2   832.2   14.05       0    999.0
 304    5:00   43.2    69    2.8   272      7.0   832.2   14.05       0    999.0
 304    5:10   43.3    70    3.2   295      8.9   832.2   14.05       0    999.0
 304    5:20   43.5    70    2.4   298      5.7   832.2   14.05       0    999.0
 304    5:30   43.6    70    2.8   218      7.9   832.3   14.05       0    999.0
 304    5:40   43.7    70    1.6   250      5.6   832.4   14.05       0    999.0
 304    5:50   43.7    69    2.4   267      5.2   832.4   14.05       0    999.0
 304    6:00   43.9    69    2.8   263      7.8   832.4   14.05       0    999.0
 304    6:10   43.8    69    2.7   240      5.9   832.2   14.05       0    999.0
 304    6:20   43.8    69    2.0   251      6.7   832.0   14.05       0    999.0
 304    6:30   43.8    68    3.0   238      9.4   831.7   14.05       1    999.0
 304    6:40   44.0    66    2.2   270      5.2   831.7   14.05       3    999.0
 304    6:50   44.1    65    1.9   187      6.9   831.7   14.05       7    999.0
 304    7:00   44.1    65    2.0   314      6.8   831.7   14.05      15    999.0
 304    7:10   44.2    64    2.0   292      8.4   831.9   14.05      22    999.0
 304    7:20   44.8    63    2.6   162      6.2   831.8   14.05      34    999.0
 304    7:30   45.3    61    1.5   127      5.5   831.6   14.05      47    999.0
 304    7:40   46.0    60    2.6   258      7.1   832.1   14.05      48    999.0
 304    7:50   46.7    59    2.4   191      7.8   832.0   14.05      63    999.0
 304    8:00   47.2    58    2.7   138      6.3   831.8   14.05      89    999.0
 304    8:10   47.7    59    2.9   134      8.2   832.4   14.05     146    999.0
 304    8:20   48.0    58    3.1   167      9.3   832.2   14.05     239    999.0
 304    8:30   49.3    56    3.5   265      9.1   832.0   14.05     393    999.0
 304    8:40   50.0    55    3.6   232      8.9   832.0   14.05     431    999.0
 304    8:50   51.1    54    3.9   240     11.9   832.1   14.05     446    999.0
 304    9:00   50.8    53    4.1   248     10.0   832.2   14.05     453    999.0
 304    9:10   50.0    54    4.7   280     14.0   832.1   14.05     298    999.0
 304    9:20   49.4    56    3.4   244      6.7   832.1   14.05     258    999.0
 304    9:30   49.2    55    3.5   269      9.1   832.1   14.05     173    999.0
 304    9:40   49.0    55    2.9   280      9.0   831.8   14.05     258    999.0
 304    9:50   49.4    54    4.0   272      9.4   831.9   14.05     274    999.0
 304   10:00   49.5    54    4.4   266      9.8   831.9   14.05     307    999.0
 304   10:10   48.9    54    3.5   213     12.6   831.6   14.05     131    999.0
 304   10:20   48.7    56    3.4   239      6.9   831.7   14.05     129    999.0
 304   10:30   48.3    57    3.6   259     10.1   831.8   14.05      94    999.0
 304   10:40   48.2    58    2.8   289      6.0   831.5   14.05      73    999.0
 304   10:50   47.9    60    2.5   228      8.5   831.5   14.05      73    999.0
 304   11:00   47.8    60    3.9   286     10.9   831.4   14.05     109    999.0
 304   11:10   48.1    58    3.7   279     10.0   831.6   14.05     118    999.0
 304   11:20   48.2    58    2.4   269      7.5   831.5   14.05     131    999.0
 304   11:30   48.2    59    3.1   270      6.3   831.4   14.05     104    999.0
 304   11:40   47.8    60    3.4   281      8.0   831.1   14.05      96    999.0
 304   11:50   47.8    61    2.3   235      6.7   831.2   14.05     102    999.0

Return to Sagehen Creek graphs page.


Western Regional Climate Center,wrcc@dri.edu